Current weather by "City, St" or "zip code"  
 

Current Conditions: Spokane, Spokane International Airport, WA

A Few Clouds


58.0 F

Last Updated on Oct 29 2020, 2:53 pm PDT
Humidity: 51%
Wind Speed: S 10.4 mph
Barometer 30.07 in
Dewpoint: 39.9 F
Visibility: 10.00 mi
Precip: --
Heat Index: NA
Wind Chill: 56 F
Current conditions at:

Spokane, Spokane International Airport, WA (KGEG)

Lat: 47.62139 Lon: 117.52778

Local Radar Image active severe weather and emergency alerts image image weather storm and storm spotter reports image weather observation monitoring service image
Local
Radar
Active
Alerts
Storm Reports Obs
Monitoring

Sign-up For Email & Text Message Weather Alert Notification Services



Advertise Here

Observation History for Spokane, Spokane International Airport, WA


Time Wind
(mph)
Vis
(mi)
Weather Precip (in) Temperature (F) Relative
Humidity
Wind
Chill
(F)
Heat
Index
(F)
Pressure
Air Dwpt altimeter
(in)
sea level
(mb)
Rmks
2:53 pm PDT S 10.4 10.00 A Few Clouds -- 58.0 39.9 51% 56 NA 30.07 1018.7
1:53 pm PDT SW 6.9 10.00 Partly Cloudy -- 57.0 39.9 53% 56 NA 30.09 1019.3
12:53 pm PDT S 5.8 10.00 Partly Cloudy -- 55.0 39.9 57% 54 NA 30.10 1019.9
11:53 am PDT 4.6 10.00 Partly Cloudy -- 53.0 39.0 59% 52 NA 30.11 1020.4
10:53 am PDT S 5.8 10.00 Partly Cloudy -- 50.0 37.9 63% 48 NA 30.12 1020.7
9:53 am PDT S 5.8 10.00 Mostly Cloudy -- 46.0 36.0 68% 43 NA 30.12 1021.0
8:53 am PDT S 8.1 10.00 Mostly Cloudy -- 41.0 34.0 76% 36 NA 30.11 1020.7
7:53 am PDT SE 5.8 10.00 Mostly Cloudy -- 38.0 33.1 83% 34 NA 30.10 1020.5
6:53 am PDT S 6.9 10.00 Partly Cloudy -- 38.0 33.1 83% 33 NA 30.10 1020.4
5:53 am PDT S 8.1 10.00 Mostly Cloudy -- 39.0 33.1 79% 33 NA 30.09 1019.9
4:53 am PDT SE 5.8 10.00 Mostly Cloudy -- 39.0 33.1 79% 35 NA 30.09 1020.0
3:53 am PDT S 10.4 10.00 Overcast -- 42.0 34.0 73% 36 NA 30.08 1019.4
2:53 am PDT S 4.6 10.00 Overcast -- 40.0 33.1 77% 37 NA 30.09 1019.7
1:53 am PDT N 0.0 10.00 Overcast -- 38.0 33.1 83% NA NA 30.09 1020.1
12:53 am PDT NE 4.6 10.00 Overcast -- 40.0 34.0 79% 37 NA 30.10 1020.1
10:53 pm PDT N 0.0 10.00 Partly Cloudy -- 40.0 34.0 79% NA NA 30.12 1021.1
9:53 pm PDT N 0.0 10.00 Partly Cloudy -- 40.0 34.0 79% NA NA 30.12 1021.2
8:53 pm PDT N 0.0 10.00 Mostly Cloudy -- 40.0 34.0 79% NA NA 30.12 1021.5
7:53 pm PDT SE 3.5 10.00 Mostly Cloudy -- 43.0 34.0 71% NA NA 30.13 1021.7
6:53 pm PDT SE 4.6 10.00 A Few Clouds -- 44.0 35.1 71% 41 NA 30.13 1021.7
5:53 pm PDT SE 8.1 10.00 Mostly Cloudy -- 47.0 35.1 63% 43 NA 30.13 1021.4
4:53 pm PDT S 5.8 10.00 Partly Cloudy -- 49.0 36.0 61% 47 NA 30.14 1022.0
3:53 pm PDT S 6.9 10.00 Partly Cloudy -- 50.0 36.0 59% 47 NA 30.15 1022.2

Regional Weather Observation


Fairchild Air Force Base, WA (KSKA)

Fair
59.0 F

Spokane, Spokane International Airport, WA (KGEG)

A Few Clouds
58.0 F

Spokane, Felts Field, WA (KSFF)

Fair
61.0 F

Coeur dAlene Airport - Pappy Boyington Field, ID (KCOE)

Fair
59.0 F

Sandpoint, Sandpoint Airport, ID (KSZT)

Fair
59.0 F

Pullman / Moscow Regional Airport, WA (KPUW)

Fair
61.0 F